Tracking 20748 objects as of 4-Jun-2020
HD Live streaming from Space Station
objects crossing your sky now
Track the most recent launched group of Starlink satellites

BREEZE-M R/B

Track BREEZE-M R/B now!


NORAD ID: 39123
Int'l Code: 2013-012B
Perigee: 5,292.7 km
Apogee: 34,246.1 km
Inclination: 18.4 °
Period: 701.0 minutes
Semi major axis: 26140 km
RCS: 0.6198 m2 (medium)
Launch date: March 26, 2013
Source: Commonwealth of Independent States (former USSR) (CIS)
Launch site: TYURATAM MISSILE AND SPACE COMPLEX (TTMTR)

Note: This is a ROCKET BODY
aabbcc
Your satellite tracking list
Your tracking list is empty




NASA's NSSDC Master Catalog

Two Line Element Set (TLE):
1 39123U 13012B   20156.32705116 -.00000020 +00000-0 +00000-0 0  9997
2 39123 018.3681 099.8586 5538059 339.1693 004.9763 02.05416482053965
Source of the keplerian elements: AFSPC